(255216) = 2005 UQ357

Discovered at Catalina on 2005-10-30 by CSS.

Orbit

Orbit type: Main Belt

Note: WebGL enabled browser required.

epoch2024-03-31.0
epoch JD2460400.5
perihelion date2021-10-24.35084
perihelion JD2459511.85084
argument of perihelion (°)280.29250
ascending node (°)105.25676
inclination (°)17.79409
eccentricity0.2806468
perihelion distance (AU)2.2144764
Tisserand w.r.t. Jupiter3.1
ΔV w.r.t. Earth (km/sec)10.8
semimajor axis (AU)3.0784271
mean anomaly (°)162.15893
mean daily motion (°/day)0.18247800
aphelion distance (AU)3.942
period (years)5.4
P-vector [x]0.85680447
P-vector [y]0.50393746
P-vector [z]-0.10923894
Q-vector [x]-0.42304054
Q-vector [y]0.80811013
Q-vector [z]0.40987159
absolute magnitude15.47
phase slope0.15
uncertainty0
referenceMPEC 2024-F14
observations used403
oppositions14
arc length (days)8487
first opposition used2000
last opposition used2024
residual rms (arc-secs)0.68
perturbers coarse indicatorM-v
perturbers precise indicator003Ek
first observation date used2000-12-21.0
last observation date used2024-03-17.0
computer nameMPCLINUX
JD of orbit computation2456819.681885
perihelion JD uncertainty (days)1.2169E-04
argument of perihelion uncertainty (°)3.7574E-05
ascending node uncertainty (°)3.4730E-05
inclination uncertainty (°)9.9407E-06
eccentricity uncertainty 9.6187E-08
perihelion distance uncertainty (AU)3.0237E-07
Minimum Orbit Intersection Distances (in AU)
for orbit epoch: 2460400.5, reference: E2024-GF4
Mercury1.88949
Venus1.52541
Earth1.2998
Mars0.90532
Jupiter1.90456
Saturn5.92228
Uranus14.8294
Neptune26.8864

Observations

405 total observations over interval: 2000 12 21.40409 – 2024 03 17.608831
These data are available for download (format description).

Date (UT) J2000 RA J2000 Dec Magn Location Ref
2000 12 21.40409 07 08 42.10 +19 45 14.7 18.8   704 – Lincoln Laboratory ETS, New Mexico MPS 162838
2000 12 21.41935 07 08 41.28 +19 45 22.5 18.6   704 – Lincoln Laboratory ETS, New Mexico MPS 162838
2000 12 21.43460 07 08 40.42 +19 45 30.4 18.9   704 – Lincoln Laboratory ETS, New Mexico MPS 162838
2000 12 30.30232 07 00 07.80 +21 00 43.9 18.9   704 – Lincoln Laboratory ETS, New Mexico MPS 162838
2000 12 30.31779 07 00 06.80 +21 00 51.9 19.0   704 – Lincoln Laboratory ETS, New Mexico MPS 162838
2000 12 30.33301 07 00 05.92 +21 01 00.1 19.0   704 – Lincoln Laboratory ETS, New Mexico MPS 162838
2000 12 30.36359 07 00 03.97 +21 01 15.3 18.8   704 – Lincoln Laboratory ETS, New Mexico MPS 162838
2001 01 20.23212 06 40 25.20 +23 47 28.3 18.9   704 – Lincoln Laboratory ETS, New Mexico MPS 162838
2001 01 20.24740 06 40 24.54 +23 47 33.6 19.0   704 – Lincoln Laboratory ETS, New Mexico MPS 162838
2001 01 20.26338 06 40 23.64 +23 47 41.1 18.8   704 – Lincoln Laboratory ETS, New Mexico MPS 162838
2001 01 20.27865 06 40 22.82 +23 47 48.0 18.7   704 – Lincoln Laboratory ETS, New Mexico MPS 162838
2001 01 20.29371 06 40 22.08 +23 47 55.0 19.7   704 – Lincoln Laboratory ETS, New Mexico MPS 162838
2003 04 28.366790 15 00 59.740 +05 35 54.12 21.66 V 645 – Apache Point-Sloan Digital Sky Survey MPS 162838
2003 04 28.370262 15 00 59.577 +05 35 54.67 22.75   645 – Apache Point-Sloan Digital Sky Survey MPS 162838
2005 09 13.43190 03 51 58.50 -04 45 59.8 19.4 V 703 – Catalina Sky Survey MPS 155385
2005 09 13.44169 03 51 58.89 -04 46 01.8 19.3 V 703 – Catalina Sky Survey MPS 155385
2005 09 13.45139 03 51 59.22 -04 46 04.3 19.1 V 703 – Catalina Sky Survey MPS 155385
2005 09 13.46112 03 51 59.58 -04 46 06.8 19.2 V 703 – Catalina Sky Survey MPS 155385
2005 09 28.36746 03 58 30.35 -05 55 49.6 19.2   704 – Lincoln Laboratory ETS, New Mexico MPS 155385
2005 09 28.37814 03 58 30.40 -05 55 52.7 20.0   704 – Lincoln Laboratory ETS, New Mexico MPS 155385
2005 09 28.39959 03 58 30.60 -05 55 58.4 19.7   704 – Lincoln Laboratory ETS, New Mexico MPS 155385
2005 09 28.41014 03 58 30.77 -05 56 03.5 19.7   704 – Lincoln Laboratory ETS, New Mexico MPS 155385
2005 10 30.37250 03 48 54.07 -07 42 35.5 18.3 V 703 – Catalina Sky Survey MPS 151048
2005 10 30.37900 03 48 53.74 -07 42 34.9 18.1 V 703 – Catalina Sky Survey MPS 151048
2005 10 30.38554 03 48 53.38 -07 42 35.7 18.4 V 703 – Catalina Sky Survey MPS 151048
2005 10 30.39207 03 48 53.13 -07 42 35.9 18.4 V 703 – Catalina Sky Survey MPS 151048
2005 11 06.30833 03 43 17.43 -07 39 27.6 18.6 V 703 – Catalina Sky Survey MPS 151048
2005 11 06.31637 03 43 16.96 -07 39 26.5 18.6 V 703 – Catalina Sky Survey MPS 151048
2005 11 06.32450 03 43 16.53 -07 39 26.0 18.7 V 703 – Catalina Sky Survey MPS 151048
2005 11 06.33256 03 43 16.10 -07 39 25.2 18.7 V 703 – Catalina Sky Survey MPS 151048
2005 11 14.34498 03 36 05.25 -07 17 53.0 17.6 R 644 – Palomar Mountain/NEAT MPS 153821
2005 11 14.36681 03 36 04.01 -07 17 47.8 17.7 R 644 – Palomar Mountain/NEAT MPS 153821
2005 11 14.38853 03 36 02.76 -07 17 42.8 18.0 R 644 – Palomar Mountain/NEAT MPS 153821
2005 11 26.24516 03 25 27.44 -06 09 18.7 18.0 R 699 – Lowell Observatory-LONEOS MPS 155385
2005 11 26.28726 03 25 25.28 -06 08 59.3   699 – Lowell Observatory-LONEOS MPS 155385
2005 11 26.32009 03 25 23.56 -06 08 46.2   699 – Lowell Observatory-LONEOS MPS 155385
2005 11 26.35295 03 25 21.81 -06 08 30.0   699 – Lowell Observatory-LONEOS MPS 155385
2006 01 24.13492 03 18 59.19 +05 48 11.4 19.9 R 699 – Lowell Observatory-LONEOS MPS 161833
2006 01 24.15768 03 18 59.94 +05 48 30.0   699 – Lowell Observatory-LONEOS MPS 161833
2006 01 24.18048 03 19 00.83 +05 48 48.1   699 – Lowell Observatory-LONEOS MPS 161833
2006 01 24.20332 03 19 01.75 +05 49 06.6   699 – Lowell Observatory-LONEOS MPS 161833
2009 06 01.38513 16 46 31.29 -07 56 01.0 19.8 V G96 – Mt. Lemmon Survey MPS 287980
2009 06 01.39130 16 46 30.93 -07 56 01.4 19.9 V G96 – Mt. Lemmon Survey MPS 287980
2009 06 01.39755 16 46 30.64 -07 56 01.4 19.8 V G96 – Mt. Lemmon Survey MPS 287980
2009 06 01.40375 16 46 30.32 -07 56 02.0 20.1 V G96 – Mt. Lemmon Survey MPS 287980
2010 05 25.564815 22 40 19.687 -17 51 01.40   C51 – WISE MPS 903807
2010 05 25.697118 22 40 29.638 -17 51 05.62   C51 – WISE MPS 903807
2010 05 25.829422 22 40 39.64 -17 51 10.3   C51 – WISE MPS 329159
2010 05 25.961726 22 40 49.62 -17 51 11.4   C51 – WISE MPS 329159
2010 05 26.027815 22 40 54.54 -17 51 15.4   C51 – WISE MPS 329159
2010 05 26.094030 22 40 59.45 -17 51 15.3   C51 – WISE MPS 329159
2010 05 26.16012 22 41 04.44 -17 51 18.9   C51 – WISE MPS 329159
2010 05 26.557030 22 41 34.00 -17 51 30.4   C51 – WISE MPS 329159
2010 05 26.689334 22 41 43.85 -17 51 34.7   C51 – WISE MPS 329159
2010 05 26.821638 22 41 53.68 -17 51 37.2   C51 – WISE MPS 329159
2010 09 11.62859 23 13 58.69 -32 49 22.8 18.0 V E12 – Siding Spring Survey MPS 347982
2010 09 11.63905 23 13 58.22 -32 49 26.9 19.0 V E12 – Siding Spring Survey MPS 347982
2010 09 11.64965 23 13 57.72 -32 49 31.8 18.3 V E12 – Siding Spring Survey MPS 347982
2010 09 11.66021 23 13 57.25 -32 49 35.7 18.4 V E12 – Siding Spring Survey MPS 347982
2010 10 27.44565 22 57 41.72 -32 26 27.3 19.6 V E12 – Siding Spring Survey MPS 351231
2010 10 27.45413 22 57 41.79 -32 26 23.8 20.1 V E12 – Siding Spring Survey MPS 351231
2010 10 27.46267 22 57 41.94 -32 26 20.4 19.2 V E12 – Siding Spring Survey MPS 351231
2010 10 27.47128 22 57 42.04 -32 26 16.5 18.8 V E12 – Siding Spring Survey MPS 351231
2012 01 21.22243 08 51 06.22 +27 18 34.4 20.1 V 703 – Catalina Sky Survey MPS 410007
2012 01 21.22786 08 51 05.90 +27 18 38.8 20.6 V 703 – Catalina Sky Survey MPS 410007
2012 01 21.23336 08 51 05.58 +27 18 40.2 20.2 V 703 – Catalina Sky Survey MPS 410007
2012 01 21.23880 08 51 05.29 +27 18 44.5 20.2 V 703 – Catalina Sky Survey MPS 410007
2012 01 23.52820 08 48 59.471 +27 38 25.39 20.3 g F51 – Pan-STARRS 1, Haleakala MPS 410007
2012 01 23.54033 08 48 58.787 +27 38 31.52 20.5 g F51 – Pan-STARRS 1, Haleakala MPS 410007
2012 01 30.75368 08 42 16.91 +28 36 24.7 18.9 R 561 – Piszkesteto Stn. (Konkoly) MPS 412845
2012 01 30.75738 08 42 16.74 +28 36 26.7 18.7 R 561 – Piszkesteto Stn. (Konkoly) MPS 412845
2012 01 30.76109 08 42 16.49 +28 36 28.6 18.7 R 561 – Piszkesteto Stn. (Konkoly) MPS 412845
2012 01 30.76480 08 42 16.28 +28 36 30.0 18.7 R 561 – Piszkesteto Stn. (Konkoly) MPS 412845
2012 01 30.76851 08 42 16.06 +28 36 32.1 18.9 R 561 – Piszkesteto Stn. (Konkoly) MPS 412845
2012 02 18.16007 08 26 43.00 +30 26 55.6 20.4 V 703 – Catalina Sky Survey MPS 414041
2012 02 18.16684 08 26 42.68 +30 26 57.8 20.7 V 703 – Catalina Sky Survey MPS 414041
2012 02 18.17478 08 26 42.39 +30 26 59.9 20.2 V 703 – Catalina Sky Survey MPS 414041
2012 02 18.18152 08 26 42.07 +30 27 02.7 20.2 V 703 – Catalina Sky Survey MPS 414041
2012 02 29.21309 08 20 10.35 +31 04 27.0 20.1 V G96 – Mt. Lemmon Survey MPS 415975
2012 02 29.22000 08 20 10.17 +31 04 27.8 20.4 V G96 – Mt. Lemmon Survey MPS 415975
2012 02 29.22686 08 20 09.99 +31 04 29.1 20.2 V G96 – Mt. Lemmon Survey MPS 415975
2012 02 29.23376 08 20 09.74 +31 04 30.3 20.5 V G96 – Mt. Lemmon Survey MPS 415975
2014 05 28.33199 15 26 29.970 +00 46 58.61 20.8 w F51 – Pan-STARRS 1, Haleakala MPS 517670
2014 05 28.36852 15 26 28.300 +00 46 57.70 20.9 w F51 – Pan-STARRS 1, Haleakala MPS 517670
2015 06 11.39177 20 06 51.03 -20 54 50.0 20.4 r G45 – Space Surveillance Telescope, Atom Site MPS 611297
2015 06 11.39652 20 06 50.94 -20 54 51.7 20.0 r G45 – Space Surveillance Telescope, Atom Site MPS 611297
2015 06 11.40160 20 06 50.84 -20 54 54.1 20.3 r G45 – Space Surveillance Telescope, Atom Site MPS 611297
2015 06 11.41319 20 06 50.64 -20 54 57.6 20.3 r G45 – Space Surveillance Telescope, Atom Site MPS 611297
2015 06 11.42551 20 06 50.35 -20 55 02.8 20.1 r G45 – Space Surveillance Telescope, Atom Site MPS 611297
2015 06 11.43083 20 06 50.30 -20 55 04.2 20.2 r G45 – Space Surveillance Telescope, Atom Site MPS 611297
2015 06 11.43919 20 06 50.09 -20 55 07.5 20.6 r G45 – Space Surveillance Telescope, Atom Site MPS 611297
2015 06 11.44956 20 06 49.89 -20 55 11.1 20.0 r G45 – Space Surveillance Telescope, Atom Site MPS 611297
